EW3511 Weather Reports


time (UTC)temp
C
wind
direction
speed
KPH
gust
KPH
rain 1hr
cm
rain 24hr
cm
rain mn
cm
humidity
%
barometer
mb
20260509192555 15 59 0.0 1.6 0.00 0.00 0.00 66 1014.3
20260509191556 15 73 0.0 1.6 0.00 0.00 0.00 65 1014.3
20260509190557 15 0.0 1.6 0.00 0.00 0.00 64 1014.2
20260509185558 16 62 1.6 3.2 0.00 0.00 0.00 61 1014.1
20260509184557 17 74 1.6 8.0 0.00 0.00 0.00 58 1014.2
20260509183557 17 76 0.0 4.8 0.00 0.00 0.00 58 1013.9
20260509182558 17 71 1.6 4.8 0.00 0.00 0.00 58 1013.9
20260509181558 17 62 1.6 8.0 0.00 0.00 0.00 57 1013.9
20260509180559 18 73 3.2 11.3 0.00 0.00 0.00 55 1013.8
20260509175559 18 72 1.6 8.0 0.00 0.00 0.00 55 1013.8
20260509174600 18 62 3.2 11.3 0.00 0.00 0.00 54 1013.8
20260509173600 19 91 3.2 11.3 0.00 0.00 0.00 54 1013.8
20260509172600 19 70 1.6 9.7 0.00 0.00 0.00 53 1013.9
20260509171601 19 70 4.8 11.3 0.00 0.00 0.00 53 1013.7
20260509170601 20 108 3.2 8.0 0.00 0.00 0.00 53 1013.7
20260509165601 20 118 4.8 11.3 0.00 0.00 0.00 52 1013.8
20260509164623 20 84 4.8 12.9 0.00 0.00 0.00 53 1013.8
20260509163615 20 96 3.2 9.7 0.00 0.00 0.00 52 1013.9
20260509162603 20 106 3.2 4.8 0.00 0.00 0.00 52 1014.0
20260509161603 20 94 3.2 9.7 0.00 0.00 0.00 52 1014.0
20260509160715 21 96 3.2 9.7 0.00 0.00 0.00 52 1014.2
20260509155532 21 96 4.8 11.3 0.00 0.00 0.00 51 1014.1
20260509154533 21 117 4.8 12.9 0.00 0.00 0.00 51 1014.2
20260509153553 21 84 3.2 8.0 0.00 0.00 0.00 50 1014.3
20260509152533 21 80 4.8 11.3 0.00 0.00 0.00 50 1014.4
20260509151534 21 67 4.8 9.7 0.00 0.00 0.00 50 1014.4
20260509150535 21 66 3.2 8.0 0.00 0.00 0.00 50 1014.6
20260509145535 21 59 3.2 11.3 0.00 0.00 0.00 50 1014.6
20260509144635 21 69 3.2 14.5 0.00 0.00 0.00 51 1014.6
20260509143537 21 83 3.2 11.3 0.00 0.00 0.00 50 1014.7
20260509142536 21 62 6.4 12.9 0.00 0.00 0.00 50 1014.7
20260509141539 21 52 3.2 12.9 0.00 0.00 0.00 53 1014.7
20260509140538 21 27 3.2 12.9 0.00 0.00 0.00 52 1014.7
20260509135537 21 48 4.8 11.3 0.00 0.00 0.00 51 1014.8
20260509134557 21 35 4.8 12.9 0.00 0.00 0.00 48 1015.0
20260509133557 21 58 1.6 8.0 0.00 0.00 0.00 48 1015.0
20260509132558 20 78 3.2 11.3 0.00 0.00 0.00 51 1015.0
20260509131539 21 70 4.8 9.7 0.00 0.00 0.00 50 1015.0
20260509130539 21 62 4.8 12.9 0.00 0.00 0.00 51 1015.1
20260509125540 21 97 3.2 8.0 0.00 0.00 0.00 50 1015.3
20260509124540 21 68 3.2 8.0 0.00 0.00 0.00 51 1015.3
20260509123600 20 120 3.2 4.8 0.00 0.00 0.00 50 1015.4
20260509122541 20 115 3.2 9.7 0.00 0.00 0.00 51 1015.4
20260509121541 20 81 4.8 9.7 0.00 0.00 0.00 54 1015.5
20260509120542 20 42 3.2 11.3 0.00 0.00 0.00 54 1015.6
20260509115543 20 72 4.8 11.3 0.00 0.00 0.00 54 1015.6
20260509114542 20 76 3.2 8.0 0.00 0.00 0.00 55 1015.8
20260509113544 20 103 3.2 8.0 0.00 0.00 0.00 56 1015.9
20260509112544 19 90 3.2 9.7 0.00 0.00 0.00 57 1015.9
20260509111544 20 109 3.2 11.3 0.00 0.00 0.00 56 1015.9
20260509110605 19 84 3.2 11.3 0.00 0.00 0.00 58 1016.1
20260509105545 18 100 3.2 9.7 0.00 0.00 0.00 60 1016.2
20260509104545 18 123 3.2 11.3 0.00 0.00 0.00 61 1016.4
20260509103546 18 122 3.2 8.0 0.00 0.00 0.00 62 1016.5